Corinth, MS

7:44 PM CST on December 16, 2017 (GMT -0600)
Turner

Weather History for KCRX - January, 2014

Change the Weather History Date:

Thursday, January 2, 2014

  Actual Average Record
Temperature  
Mean Temperature 36 °F -  
Max Temperature 48 °F 47 °F 71 °F (2017)
Min Temperature 23 °F 28 °F 11 °F (1979)
Degree Days  
Heating Degree Days 30    
Moisture  
Dew Point 28 °F    
Average Humidity 75    
Maximum Humidity 93    
Minimum Humidity 54    
Precipitation  
Precipitation 0.16 in - - ()
Sea Level Pressure  
Sea Level Pressure 30.14 in    
Wind  
Wind Speed 11 mph (NW)    
Max Wind Speed 21 mph    
Max Gust Speed 33 mph    
Visibility 9 miles    
Events Rain , Snow    
Averages and records for this station are not official NWS values.
T = Trace of Precipitation, MM = Missing Value Source: NWS Daily Summary

Daily Weather History Graph

Daily Weather History Graph

Search for Another Location

Airport or City:

Trip Planner

Search our weather history database for the weather conditions in past years. The results will help you decide how hot, cold, wet, or windy it might be!

Date:

Astronomy

Jan. 02, 2014 Rise Set
Actual Time 7:02 AM CST 4:54 PM CST
Civil Twilight 6:34 AM CST 5:22 PM CST
Nautical Twilight 6:02 AM CST 5:54 PM CST
Astronomical Twilight 5:32 AM CST 6:25 PM CST
Moon 7:47 AM CST (1/2) 6:46 PM CST (1/2)
Length of Visible Light 10h 48m
Length of Day
9h 52m
Waxing Crescent, 3% of the Moon is Illuminated
Jan 2
Waxing Crescent
Jan 7
First Quarter
Jan 15
Full
Jan 23
Last Quarter
Jan 30
New

Hourly Weather History & Observations

Time (CST) Temp. Windchill Dew Point Humidity Pressure Visibility Wind Dir Wind Speed Gust Speed Precip Events Conditions
12:15 AM 46.4 °F 42.9 °F 42.8 °F 87% 29.99 in 4.0 mi South 6.9 mph - 0.02 in Rain Light Rain
12:35 AM 46.4 °F 42.4 °F 42.8 °F 87% 29.98 in 5.0 mi South 8.1 mph - 0.03 in Rain Light Rain
12:55 AM 46.4 °F 41.9 °F 42.8 °F 87% 29.97 in 6.0 mi South 9.2 mph - 0.03 in   Overcast
1:15 AM 46.4 °F 41.9 °F 42.8 °F 87% 29.96 in 5.0 mi South 9.2 mph - N/A   Overcast
1:35 AM 46.4 °F 42.4 °F 44.6 °F 93% 29.96 in 8.0 mi South 8.1 mph - N/A   Overcast
1:55 AM 46.4 °F 41.9 °F 44.6 °F 93% 29.96 in 10.0 mi South 9.2 mph - N/A   Overcast
2:15 AM 46.4 °F 42.4 °F 44.6 °F 93% 29.96 in 10.0 mi South 8.1 mph - N/A   Overcast
2:35 AM 46.4 °F 42.9 °F 44.6 °F 93% 29.95 in 10.0 mi South 6.9 mph - N/A   Overcast
2:55 AM 46.4 °F 42.9 °F 44.6 °F 93% 29.93 in 10.0 mi South 6.9 mph - N/A   Overcast
3:15 AM 46.4 °F 41.9 °F 44.6 °F 93% 29.92 in 9.0 mi South 9.2 mph - N/A   Overcast
3:35 AM 48.2 °F - 44.6 °F 87% 29.91 in 7.0 mi South 11.5 mph 16.1 mph N/A   Overcast
3:55 AM 48.2 °F - 44.6 °F 87% 29.89 in 6.0 mi South 11.5 mph - N/A   Overcast
4:15 AM 48.2 °F - 46.4 °F 93% 29.88 in 5.0 mi South 8.1 mph - N/A   Overcast
4:35 AM 48.2 °F - 46.4 °F 93% 29.87 in 5.0 mi South 6.9 mph - N/A   Overcast
4:55 AM 48.2 °F - 46.4 °F 93% 29.88 in 4.0 mi SSW 8.1 mph - N/A   Overcast
5:15 AM 48.2 °F - 46.4 °F 93% 29.88 in 2.5 mi SSW 9.2 mph - N/A Rain Light Rain
5:35 AM 48.2 °F - 46.4 °F 93% 29.88 in 3.0 mi SW 4.6 mph - 0.01 in Rain Light Rain
5:55 AM 48.2 °F - 46.4 °F 93% 29.87 in 4.0 mi South 5.8 mph - 0.02 in Rain Light Rain
6:15 AM 48.2 °F - 46.4 °F 93% 29.87 in 4.0 mi West 5.8 mph - N/A Rain Light Rain
6:35 AM 48.2 °F - 46.4 °F 93% 29.90 in 5.0 mi WNW 13.8 mph 21.9 mph 0.05 in Rain Rain
6:55 AM 46.4 °F 39.0 °F 44.6 °F 93% 29.92 in 5.0 mi NW 19.6 mph 31.1 mph 0.11 in Rain Light Rain
7:15 AM 44.6 °F 37.2 °F 41.0 °F 87% 29.93 in 10.0 mi NNW 17.3 mph 33.4 mph N/A Rain Light Rain
7:35 AM 44.6 °F 36.9 °F 39.2 °F 81% 29.95 in 10.0 mi NNW 18.4 mph 28.8 mph N/A   Overcast
7:55 AM 41.0 °F 31.6 °F 37.4 °F 87% 29.97 in 10.0 mi NW 20.7 mph 28.8 mph N/A   Overcast
8:15 AM 37.4 °F 27.5 °F 35.6 °F 93% 30.00 in 10.0 mi NW 18.4 mph 27.6 mph N/A Snow Light Snow
8:35 AM 35.6 °F 25.2 °F 32.0 °F 87% 30.03 in 10.0 mi NW 18.4 mph 25.3 mph N/A Snow Light Snow
8:55 AM 35.6 °F 27.5 °F 32.0 °F 87% 30.05 in 10.0 mi NW 11.5 mph 21.9 mph N/A Snow Light Snow
9:15 AM 33.8 °F 22.2 °F 28.4 °F 81% 30.07 in 10.0 mi NNW 20.7 mph 31.1 mph N/A Snow Light Snow
9:35 AM 32.0 °F 23.0 °F 28.4 °F 87% 30.09 in 10.0 mi NNW 11.5 mph 20.7 mph N/A Snow Light Snow
9:55 AM 32.0 °F 22.5 °F 28.4 °F 87% 30.11 in 9.0 mi NW 12.7 mph 25.3 mph N/A Snow Light Snow
10:15 AM 32.0 °F 20.8 °F 28.4 °F 87% 30.12 in 10.0 mi NW 17.3 mph 24.2 mph N/A Snow Light Snow
10:35 AM 32.0 °F 20.1 °F 26.6 °F 80% 30.13 in 9.0 mi NW 19.6 mph 28.8 mph N/A Snow Light Snow
10:55 AM 32.0 °F 21.6 °F 24.8 °F 75% 30.13 in 9.0 mi NNW 15.0 mph 29.9 mph N/A Snow Light Snow
11:15 AM 32.0 °F 21.6 °F 26.6 °F 80% 30.14 in 8.0 mi NNW 15.0 mph 28.8 mph N/A Snow Light Snow
11:35 AM 30.2 °F 17.8 °F 24.8 °F 80% 30.14 in 10.0 mi NW 19.6 mph 29.9 mph N/A Snow Light Snow
11:55 AM 30.2 °F 19.8 °F 24.8 °F 80% 30.15 in 10.0 mi NNW 13.8 mph 24.2 mph N/A   Overcast
12:15 PM 30.2 °F 18.1 °F 23.0 °F 75% 30.16 in 10.0 mi NW 18.4 mph 27.6 mph N/A   Overcast
12:35 PM 30.2 °F 19.8 °F 23.0 °F 75% 30.15 in 10.0 mi NW 13.8 mph 25.3 mph N/A Snow Light Snow
12:55 PM 32.0 °F 22.1 °F 23.0 °F 69% 30.16 in 10.0 mi NNW 13.8 mph - N/A   Overcast
1:15 PM 32.0 °F 20.1 °F 23.0 °F 69% 30.16 in 10.0 mi NNW 19.6 mph 27.6 mph N/A Snow Light Snow
1:35 PM 32.0 °F 20.1 °F 23.0 °F 69% 30.16 in 10.0 mi NW 19.6 mph 26.5 mph N/A Snow Light Snow
1:55 PM 32.0 °F 20.8 °F 23.0 °F 69% 30.17 in 10.0 mi NW 17.3 mph 25.3 mph N/A Snow Light Snow
2:15 PM 32.0 °F 20.5 °F 21.2 °F 64% 30.18 in 10.0 mi NNW 18.4 mph 23.0 mph N/A   Mostly Cloudy
2:35 PM 32.0 °F 21.2 °F 21.2 °F 64% 30.19 in 10.0 mi NNW 16.1 mph 29.9 mph N/A Snow Light Snow
2:55 PM 32.0 °F 20.8 °F 19.4 °F 60% 30.20 in 10.0 mi NW 17.3 mph 24.2 mph N/A   Mostly Cloudy
3:15 PM 32.0 °F 20.8 °F 19.4 °F 60% 30.21 in 10.0 mi NNW 17.3 mph 21.9 mph N/A   Overcast
3:35 PM 30.2 °F 19.3 °F 19.4 °F 64% 30.22 in 10.0 mi NW 15.0 mph 23.0 mph N/A   Overcast
3:55 PM 30.2 °F 18.9 °F 17.6 °F 60% 30.23 in 10.0 mi NNW 16.1 mph 23.0 mph N/A Snow Light Snow
4:15 PM 28.4 °F 17.0 °F 19.4 °F 69% 30.24 in 10.0 mi NW 15.0 mph 26.5 mph N/A   Overcast
4:35 PM 28.4 °F 16.2 °F 17.6 °F 64% 30.26 in 10.0 mi NNW 17.3 mph 23.0 mph N/A   Mostly Cloudy
4:55 PM 28.4 °F 17.5 °F 17.6 °F 64% 30.27 in 10.0 mi NNW 13.8 mph 21.9 mph N/A Snow Light Snow
5:15 PM 28.4 °F 17.5 °F 15.8 °F 59% 30.26 in 10.0 mi NNW 13.8 mph 24.2 mph N/A Snow Light Snow
5:35 PM 28.4 °F 16.2 °F 15.8 °F 59% 30.28 in 10.0 mi NNW 17.3 mph 26.5 mph N/A Snow Light Snow
5:55 PM 26.6 °F 15.7 °F 15.8 °F 64% 30.29 in 10.0 mi NNW 12.7 mph 25.3 mph N/A   Mostly Cloudy
6:15 PM 26.6 °F 15.2 °F 15.8 °F 64% 30.29 in 10.0 mi NNW 13.8 mph 24.2 mph N/A Snow Light Snow
6:35 PM 26.6 °F 16.2 °F 15.8 °F 64% 30.29 in 10.0 mi NNW 11.5 mph 20.7 mph N/A   Mostly Cloudy
6:55 PM 26.6 °F 15.2 °F 15.8 °F 64% 30.31 in 10.0 mi NNW 13.8 mph 24.2 mph N/A   Partly Cloudy
7:15 PM 26.6 °F 15.7 °F 15.8 °F 64% 30.33 in 10.0 mi NNW 12.7 mph - N/A   Mostly Cloudy
7:35 PM 26.6 °F 18.2 °F 15.8 °F 64% 30.34 in 10.0 mi North 8.1 mph - N/A   Mostly Cloudy
7:55 PM 26.6 °F 16.2 °F 14.0 °F 59% 30.35 in 10.0 mi North 11.5 mph 18.4 mph N/A   Scattered Clouds
8:15 PM 26.6 °F 15.2 °F 14.0 °F 59% 30.36 in 10.0 mi NNW 13.8 mph 18.4 mph N/A   Clear
8:35 PM 24.8 °F 13.4 °F 12.2 °F 59% 30.37 in 10.0 mi NNW 12.7 mph 23.0 mph N/A   Clear
8:55 PM 24.8 °F 15.3 °F 12.2 °F 59% 30.38 in 10.0 mi NNW 9.2 mph 17.3 mph N/A   Clear
9:15 PM 24.8 °F 12.9 °F 12.2 °F 59% 30.38 in 10.0 mi North 13.8 mph 17.3 mph N/A   Clear
9:35 PM 24.8 °F 13.4 °F 10.4 °F 54% 30.40 in 10.0 mi North 12.7 mph 17.3 mph N/A   Clear
9:55 PM 24.8 °F 13.4 °F 10.4 °F 54% 30.40 in 10.0 mi NNW 12.7 mph 16.1 mph N/A   Clear
10:15 PM 23.0 °F 13.1 °F 10.4 °F 59% 30.40 in 10.0 mi North 9.2 mph 16.1 mph N/A   Clear
10:35 PM 23.0 °F 13.1 °F 10.4 °F 59% 30.41 in 10.0 mi NNW 9.2 mph 16.1 mph N/A   Clear
10:55 PM 23.0 °F 13.9 °F 10.4 °F 59% 30.41 in 10.0 mi NNW 8.1 mph - N/A   Clear
11:15 PM 23.0 °F 13.9 °F 10.4 °F 59% 30.42 in 10.0 mi NNW 8.1 mph - N/A   Clear
11:35 PM 23.0 °F 12.4 °F 10.4 °F 59% 30.42 in 10.0 mi NNW 10.4 mph - N/A   Scattered Clouds
11:55 PM 23.0 °F 13.9 °F 10.4 °F 59% 30.43 in 10.0 mi NNW 8.1 mph - N/A   Overcast